DECAYED
Showing default

VCUB1, 56215 (Decayed)

Orbit data source: Space-Track

VCUB1, 56215 was a payload satellite owned by VISIONA Tec. (BR) in LEO that was launched on Sat, 15 Apr 2023 UTC via an FALCON 9 launch vehicle from the Air Force Western Test Range (AFWTR). Payload-class satellites include a variety of spacecraft equipped with specific instruments for various scientific and technological missions. These include communications satellites like Starlink; space stations such as the ISS; scientific satellites like the Hubble; Earth observation satellites from companies like Planet Labs, Umbra, and HawkEye 360; GPS; miniature CubeSats for education and research; and military/defense satellites.

Not visible in the next 10 days
Identifier
56215, 2023-054AP
Orbit
Decayed
Country
Flag of BRBR / BRAZ
Related business
Flag of BRVISIONA Tecnologia Espacial S.A. (BR)
Manufacturer
VISIONA Tec.
Mission
Decayed Commercial Imaging
Bus & Motor
CUBESAT 6U, Unknown motor
Mass
10 kg wet, ~10 kg dry
Launch date (UTC)
2023-04-15 (3 years ago)
Launch vehicle
FALCON 9
Launch site
Air Force Western Test Range (AFWTR)
Object type
Payload
Rocket body
Debris
Shape & HBR
Box + 2 Pan, 0.4 m
Radar Cross Section
0.115 m², Medium (>0.1 m² and < 1m²)

Expand to show TLE details & history
Last TLE update: 1 year ago

TLE from 1 year ago
0 VCUB1
1 56215U 23054AP  25026.64335859  .17692275  25190-5  41834-3 0  9995
2 56215  97.3094 302.9093 0012554 271.0910  88.8954 16.45299738101183
Epoch: 2025-01-26T15:26Z
TLE epoch observation values (Epoch: 2025-01-26T15:26:26.182Z)
Latitude
-0.00002°
Longitude
-54.87467°
Altitude
154.856 km
Speed
7.813 km/s
True Right ascension
20h 11m 38s
True Declination
0° 00' 00"
Sunlit
Object was in daylight at epoch
Visualization orbit readout
Latitude
Unknown
Longitude
Unknown
Altitude
Unknown
Speed
Unknown
Apparent Right ascension
Unknown
Apparent Declination
Unknown
Sunlit
N/A
Visualization observer readout
Local Sidereal Time
03:15:29
Azimuth
Unknown
Elevation
Unknown
Doppler factor
Unknown
Orbital elements
Apogee altitude
156.733 km
Perigee altitude
140.345 km
Semi-major axis
6,526.676 km
Eccentricity
0.00126
Inclination
97.3094°
RAAN
302.9093°
Arg. of periapsis
271.091°
True anomaly
89.03924°
Mean anomaly
88.8954°
Eccentric anomaly
88.96732°
Mean motion
4.11628 °/min
Orbital period
87.46 mins
BSTAR
0.00041834
Loading maneuver chart data...
Computing Atmospheric mass density...

Documentation

Showing up to 5 results
|